Showing default

USA 254, 40100

Orbit data source: Space-Track

USA 254, 40100 is a payload satellite owned by USAF AFSPC (US) in GEO that was launched on Mon, 28 Jul 2014 UTC via a DELTA 4M+(4,2) launch vehicle from the Air Force Eastern Test Range (AFETR). Payload-class satellites include a variety of spacecraft equipped with specific instruments for various scientific and technological missions. These include communications satellites like Starlink; space stations such as the ISS; scientific satellites like the Hubble; Earth observation satellites from companies like Planet Labs, Umbra, and HawkEye 360; GPS; miniature CubeSats for education and research; and military/defense satellites.

Loading next visibility...
Identifier
40100, 2014-043B
Orbit
GEO
Country
Flag of USUS
Related business
Manufacturer
OSC
Mission
Non-operational Defense Classified
Bus & Motor
GEOSTAR-1, AOCS
Mass
500 kg wet, 500 kg dry
Launch date (UTC)
2014-07-28 (11 years ago)
Launch vehicle
DELTA 4M+(4,2)
Launch site
Air Force Eastern Test Range (AFETR)
Object type
Payload
Rocket body
Debris
Shape & HBR
Box + 2 Pan, 2.5 m
Radar Cross Section
7.621 m²

Expand to show TLE details & history
Last TLE update: 2 weeks ago

TLE from 2 weeks ago
0 USA 254
1 40100U 14043B   25231.45435177 -.00000248  00000-0  00000+0 0  9990
2 40100   3.9298  79.9238 0000522 218.0601 149.6016  0.99131065 24583
Epoch: 2025-08-19T10:54Z
TLE epoch observation values (Epoch: 2025-08-19T10:54:15.992Z)
Latitude
0.51613°
Longitude
-44.03209°
Altitude
36,110.793 km
Speed
3.063 km/s
True Right ascension
05h 50m 19s
True Declination
0° 30' 56"
Sunlit
Object was in daylight at epoch
Visualization orbit readout
Latitude
Unknown
Longitude
Unknown
Altitude
Unknown
Speed
Unknown
Apparent Right ascension
Unknown
Apparent Declination
Unknown
Sunlit
N/A
Visualization observer readout
Local Sidereal Time
18:17:31
Azimuth
Unknown
Elevation
Unknown
Doppler factor
Unknown
Orbital elements
Apogee altitude
36,112.716 km
Perigee altitude
36,108.28 km
Semi-major axis
42,488.635 km
Eccentricity
0.00005
Inclination
3.9298°
RAAN
79.9238°
Arg. of periapsis
218.0601°
True anomaly
149.60463°
Mean anomaly
149.6016°
Eccentric anomaly
149.60311°
Mean motion
0.24782 °/min
Orbital period
1,452.68 mins
BSTAR
0
Loading maneuver chart data...
Computing Atmospheric mass density...
Loading historical data...
Loading historical data...
Loading historical data...
Loading historical data...
Loading historical data...
Loading historical data...
Loading historical data...
Other satellites on launch #43 in the year 2014 (2014-07-28 UTC)

Documentation

Showing up to 5 results
|